Location: ????????
(60.4333°N, 46.4710°E)
Time: 18:41:00
(UTC+00:00)

Cosmos 2219 Rocket - Pass Details

Date: 25 November 2020
Orbit: 829 x 845 km, 71.0° (Epoch: 16 January)

Event Time Altitude Azimuth Distance (km) Brightness Sun altitude
Rises 13:54:30 0° 206° (SSW) 3,389 6.1 -12.5°
Reaches altitude 10° 13:56:57 10° 204° (SSW) 2,456 5.3 -12.8°
Maximum altitude 14:02:32 66° 123° (ESE) 913 2.2 -13.5°
Enters shadow 14:07:00 16° 44° (NE) 2,043 3.7 -14.0°
